Simultaneous Nadir Overpasses (SNOs) Predictions

Prediction of SNOs between METOP-A and NOAA-19 Satellite Orbit:

Table of predicted SNOs for the next 14.0 days since TLE Epoch: 3/8/2019
Index Date (METOP-A) Time (METOP-A) Lat,Lon (METOP-A) SZA (METOP-A ) Date (NOAA-19) Time (NOAA-19) Lat,Lon (NOAA-19) SZA (NOAA-19 ) Distance(km) Time Diff (sec)
1 03/09/2019 20:40:20 -79.42, 61.05 96.17 03/09/2019 20:39:11 -79.42, 61.21 96.17 3.22 69
2 03/09/2019 21:31:01 79.40,-131.73 83.80 03/09/2019 21:30:09 79.43,-131.65 83.83 3.58 52
3 03/09/2019 22:21:41 -79.43, 35.81 96.18 03/09/2019 22:21:12 -79.42, 35.69 96.20 2.79 29
4 03/09/2019 23:12:22 79.42,-156.97 83.79 03/09/2019 23:12:09 79.40,-156.89 83.78 2.22 13
5 03/10/2019 00:03:03 -79.41, 10.31 96.24 03/10/2019 00:03:12 -79.40, 10.44 96.25 3.21 9
6 03/10/2019 00:53:44 79.40, 177.52 83.74 03/10/2019 00:54:10 79.41, 177.59 83.75 1.90 26
7 03/10/2019 01:44:25 -79.39, -15.19 96.29 03/10/2019 01:45:13 -79.40, -15.08 96.27 2.48 48
8 03/10/2019 02:35:05 79.41, 152.28 83.73 03/10/2019 02:36:10 79.38, 152.35 83.71 3.56 65
9 03/20/2019 17:39:41 79.63, -72.32 79.82 03/20/2019 17:38:33 79.63, -75.26 79.73 58.88 68
10 03/20/2019 18:30:27 -79.46, 93.71 100.40 03/20/2019 18:29:28 -79.46, 93.67 100.41 0.81 59
11 03/20/2019 19:21:07 79.47, -98.91 79.60 03/20/2019 19:20:28 79.46, -99.06 79.58 3.39 39
12 03/20/2019 20:11:49 -79.44, 68.20 100.46 03/20/2019 20:11:29 -79.46, 68.14 100.44 2.78 20
13 03/20/2019 21:02:29 79.45,-124.41 79.54 03/20/2019 21:02:28 79.43,-124.31 79.53 2.80 1
14 03/20/2019 21:53:10 -79.45, 42.96 100.47 03/20/2019 21:53:29 -79.44, 42.90 100.48 2.30 19
15 03/20/2019 22:43:51 79.43,-149.92 79.49 03/20/2019 22:44:29 79.43,-149.83 79.51 2.11 38
16 03/20/2019 23:34:32 -79.43, 17.46 100.52 03/20/2019 23:35:30 -79.44, 17.37 100.51 1.94 58




NCC Satellite Simultaneous Nadir Overpasses (SNOs) Prediction Service
